Previsão horária em Semyunovo

Hoje, 25 Novembro, Quarta-feira

Tempo Temperatura Precipitação Vento Pressão Humidade
00:00 -3°C° 0 mm 4 m/s 746 mmHg 92%
01:00 -2°C° 0 mm 3 m/s 746 mmHg 93%
02:00 -2°C° 0 mm 3 m/s 746 mmHg 94%
03:00 -2°C° 0 mm 2 m/s 746 mmHg 95%
04:00 -3°C° 0 mm 2 m/s 746 mmHg 95%
05:00 -3°C° 0 mm 2 m/s 746 mmHg 95%
06:00 -3°C° 0 mm 2 m/s 746 mmHg 95%
07:00 -3°C° 0 mm 2 m/s 747 mmHg 95%
08:00 -3°C° 0 mm 2 m/s 747 mmHg 95%
09:00 -3°C° 0 mm 2 m/s 747 mmHg 94%
10:00 -2°C° 0 mm 2 m/s 747 mmHg 92%
11:00 +1°C° 0 mm 1 m/s 747 mmHg 91%
12:00 +1°C° 0 mm 1 m/s 747 mmHg 91%
13:00 -1°C° 0 mm 2 m/s 747 mmHg 92%
14:00 -1°C° 0 mm 2 m/s 748 mmHg 92%
15:00 -1°C° 0 mm 2 m/s 748 mmHg 92%
16:00 -1°C° 0 mm 2 m/s 748 mmHg 92%
17:00 -1°C° 0 mm 2 m/s 749 mmHg 92%
18:00 -2°C° 0 mm 2 m/s 749 mmHg 91%
19:00 0°C° 0 mm 1 m/s 749 mmHg 90%
20:00 -1°C° 0 mm 1 m/s 750 mmHg 90%
21:00 -1°C° 0 mm 1 m/s 750 mmHg 90%
22:00 -1°C° 0 mm 1 m/s 750 mmHg 91%
23:00 -1°C° 0 mm 1 m/s 750 mmHg 91%

Amanhã, 26 Novembro, Quinta-feira

Tempo Temperatura Precipitação Vento Pressão Humidade
00:00 -1°C° 0 mm 1 m/s 751 mmHg 91%
01:00 0°C° 0 mm 1 m/s 751 mmHg 90%
02:00 0°C° 0 mm 1 m/s 751 mmHg 90%
03:00 0°C° 0 mm 1 m/s 751 mmHg 90%
04:00 0°C° 0 mm 1 m/s 751 mmHg 91%
05:00 -2°C° 0 mm 2 m/s 751 mmHg 91%
06:00 -2°C° 0 mm 2 m/s 751 mmHg 91%
07:00 -2°C° 0 mm 2 m/s 751 mmHg 91%
08:00 -2°C° 0 mm 2 m/s 751 mmHg 91%
09:00 -1°C° 0.1 mm 3 m/s 751 mmHg 91%
10:00 -1°C° 0.1 mm 3 m/s 750 mmHg 92%
11:00 -2°C° 0.1 mm 4 m/s 750 mmHg 92%
12:00 -2°C° 0.2 mm 4 m/s 750 mmHg 93%
13:00 -2°C° 0.2 mm 4 m/s 750 mmHg 94%
14:00 -1°C° 0.2 mm 4 m/s 750 mmHg 95%
15:00 -1°C° 0.1 mm 4 m/s 749 mmHg 96%
16:00 -1°C° 0.1 mm 4 m/s 749 mmHg 97%
17:00 0°C° 0.1 mm 4 m/s 748 mmHg 98%
18:00 0°C° 0.1 mm 4 m/s 748 mmHg 98%
19:00 0°C° 0.1 mm 4 m/s 748 mmHg 98%
20:00 +1°C° 0.1 mm 4 m/s 747 mmHg 98%
21:00 +1°C° 0 mm 4 m/s 747 mmHg 95%
22:00 0°C° 0 mm 5 m/s 747 mmHg 93%
23:00 0°C° 0 mm 5 m/s 747 mmHg 90%

Depois de amanhã, 27 Novembro, Sexta-feira

Tempo Temperatura Precipitação Vento Pressão Humidade
00:00 0°C° 0 mm 5 m/s 747 mmHg 90%
01:00 -1°C° 0 mm 5 m/s 746 mmHg 90%
02:00 -1°C° 0 mm 5 m/s 746 mmHg 89%
03:00 -1°C° 0 mm 5 m/s 746 mmHg 90%
04:00 -2°C° 0 mm 5 m/s 746 mmHg 91%
05:00 -2°C° 0 mm 5 m/s 745 mmHg 91%
06:00 -2°C° 0 mm 5 m/s 745 mmHg 90%
07:00 -2°C° 0 mm 5 m/s 745 mmHg 90%
08:00 -2°C° 0 mm 5 m/s 745 mmHg 89%
09:00 -2°C° 0 mm 5 m/s 745 mmHg 88%
10:00 -2°C° 0 mm 5 m/s 745 mmHg 88%
11:00 -1°C° 0 mm 5 m/s 745 mmHg 87%
12:00 -1°C° 0 mm 5 m/s 745 mmHg 88%
13:00 -1°C° 0 mm 4 m/s 745 mmHg 89%
14:00 -1°C° 0 mm 4 m/s 744 mmHg 90%
15:00 -1°C° 0.1 mm 4 m/s 744 mmHg 93%
16:00 -1°C° 0.1 mm 4 m/s 744 mmHg 95%
17:00 0°C° 0.1 mm 3 m/s 744 mmHg 97%
18:00 -1°C° 0.3 mm 4 m/s 744 mmHg 97%
19:00 0°C° 0.3 mm 4 m/s 744 mmHg 97%
20:00 0°C° 0.3 mm 4 m/s 744 mmHg 97%
21:00 0°C° 0.1 mm 4 m/s 744 mmHg 97%
22:00 +1°C° 0.1 mm 3 m/s 744 mmHg 97%
23:00 +1°C° 0.1 mm 3 m/s 744 mmHg 97%

28 Novembro, Sábado

Tempo Temperatura Precipitação Vento Pressão Humidade
00:00 +1°C° 0 mm 3 m/s 745 mmHg 97%
01:00 +1°C° 0 mm 3 m/s 745 mmHg 97%
02:00 +1°C° 0 mm 3 m/s 745 mmHg 96%
03:00 +1°C° 0 mm 3 m/s 745 mmHg 97%
04:00 +1°C° 0 mm 3 m/s 746 mmHg 97%
05:00 +1°C° 0 mm 2 m/s 746 mmHg 98%
06:00 +1°C° 0 mm 2 m/s 746 mmHg 98%
07:00 +1°C° 0 mm 2 m/s 747 mmHg 98%
08:00 +1°C° 0 mm 2 m/s 747 mmHg 98%
09:00 +3°C° 0 mm 1 m/s 748 mmHg 98%
10:00 +3°C° 0 mm 1 m/s 748 mmHg 98%
11:00 +3°C° 0 mm 1 m/s 749 mmHg 98%
12:00 +3°C° 0 mm 1 m/s 749 mmHg 97%
13:00 +3°C° 0 mm 1 m/s 749 mmHg 97%
14:00 +2°C° 0 mm 0 m/s 749 mmHg 97%
15:00 +2°C° 0 mm 0 m/s 750 mmHg 97%
16:00 +2°C° 0 mm 1 m/s 750 mmHg 97%
17:00 +2°C° 0 mm 1 m/s 751 mmHg 98%
18:00 +2°C° 0.1 mm 1 m/s 751 mmHg 98%
19:00 +2°C° 0.1 mm 1 m/s 752 mmHg 98%
20:00 +2°C° 0.1 mm 1 m/s 752 mmHg 98%
21:00 +2°C° 0 mm 1 m/s 752 mmHg 98%
22:00 +2°C° 0 mm 1 m/s 753 mmHg 97%
23:00 +2°C° 0 mm 1 m/s 753 mmHg 97%

29 Novembro, Domingo

Tempo Temperatura Precipitação Vento Pressão Humidade
00:00 +2°C° 0.1 mm 1 m/s 754 mmHg 97%
01:00 +2°C° 0.1 mm 1 m/s 754 mmHg 97%
02:00 -1°C° 0.1 mm 2 m/s 754 mmHg 97%
03:00 -1°C° 0 mm 2 m/s 754 mmHg 97%
04:00 -1°C° 0 mm 2 m/s 754 mmHg 97%
05:00 -1°C° 0 mm 2 m/s 755 mmHg 97%
06:00 -1°C° 0 mm 2 m/s 755 mmHg 97%
07:00 -1°C° 0 mm 3 m/s 755 mmHg 97%
08:00 -1°C° 0 mm 3 m/s 755 mmHg 97%
09:00 0°C° 0 mm 3 m/s 756 mmHg 95%
10:00 -1°C° 0 mm 4 m/s 756 mmHg 94%
11:00 -1°C° 0 mm 4 m/s 756 mmHg 92%
12:00 -1°C° 0 mm 4 m/s 756 mmHg 92%
13:00 -1°C° 0 mm 4 m/s 756 mmHg 92%
14:00 -1°C° 0 mm 4 m/s 756 mmHg 92%
15:00 -1°C° 0 mm 4 m/s 756 mmHg 93%
16:00 -1°C° 0 mm 4 m/s 756 mmHg 94%
17:00 -1°C° 0 mm 5 m/s 756 mmHg 95%
18:00 -1°C° 0 mm 5 m/s 756 mmHg 94%
19:00 -1°C° 0 mm 5 m/s 756 mmHg 94%
20:00 -1°C° 0 mm 5 m/s 756 mmHg 93%
21:00 -1°C° 0 mm 5 m/s 756 mmHg 94%
22:00 -1°C° 0 mm 5 m/s 756 mmHg 94%
23:00 -1°C° 0 mm 5 m/s 756 mmHg 94%

30 Novembro, Segunda-feira

Tempo Temperatura Precipitação Vento Pressão Humidade
00:00 -1°C° 0 mm 5 m/s 756 mmHg 95%
01:00 0°C° 0 mm 5 m/s 756 mmHg 95%
02:00 0°C° 0 mm 5 m/s 756 mmHg 96%
03:00 0°C° 0 mm 5 m/s 756 mmHg 96%
04:00 0°C° 0 mm 4 m/s 756 mmHg 97%
05:00 0°C° 0 mm 4 m/s 756 mmHg 97%
06:00 0°C° 0 mm 4 m/s 756 mmHg 97%
07:00 0°C° 0 mm 4 m/s 756 mmHg 97%
08:00 0°C° 0 mm 4 m/s 756 mmHg 96%
09:00 0°C° 0 mm 4 m/s 756 mmHg 96%
10:00 0°C° 0 mm 4 m/s 756 mmHg 95%
11:00 0°C° 0 mm 4 m/s 757 mmHg 94%
12:00 +1°C° 0 mm 4 m/s 756 mmHg 94%
13:00 +1°C° 0 mm 4 m/s 756 mmHg 93%
14:00 +1°C° 0 mm 4 m/s 756 mmHg 93%
15:00 +1°C° 0 mm 4 m/s 756 mmHg 93%
16:00 0°C° 0 mm 4 m/s 756 mmHg 94%
17:00 +1°C° 0 mm 3 m/s 756 mmHg 94%
18:00 +1°C° 0.1 mm 3 m/s 756 mmHg 94%
19:00 0°C° 0.1 mm 4 m/s 757 mmHg 94%
20:00 0°C° 0.1 mm 4 m/s 757 mmHg 94%
21:00 +1°C° 0 mm 4 m/s 757 mmHg 95%
22:00 +1°C° 0 mm 4 m/s 757 mmHg 95%
23:00 +2°C° 0 mm 3 m/s 757 mmHg 95%
Mostrar mais

Necessitamos do seu Consentimento

A Meteoprog e os seus Fornecedores de Serviços podem armazenar e aceder a dados pessoais como cookies, identificadores do dispositivo ou outras tecnologias semelhantes existentes no seu dispositivo e processar estes dados para personalizar conteúdos e anúncios, assim como funcionalidades nas redes sociais e análise de tráfego.

  • Armazenar e/ou aceder a informações no seu dispositivo

    Os cookies, identificadores do dispositivo ou outras informações podem ser armazenados ou acedidos no seu dispositivo, para os fins acima indicados.

  • Anúncios e conteúdos personalizados, medição de anúncios e conteúdos, dados sobre o público-alvo e desenvolvimento de produtos

    Os anúncios e os conteúdos podem ser personalizados com base num perfil. Podem ser adicionados dados adicionais para uma maior personalização dos anúncios e dos conteúdos. A eficácia dos anúncios e dos conteúdos pode ser medida. Podem ser obtidas informações sobre o público que visualizou os anúncios e os conteúdos. Estes dados podem ser usados para desenvolver ou melhorar sistemas, softwares ou a experiência do utilizador.

Ao clicar em "Eu concordo”, permitirá o uso de cookies, identificadores do dispositivo e web beacons mencionados ou outras tecnologias semelhantes. As configurações do navegador do seu dispositivo podem ser alteradas.

Para certos fins, podem ser invocados interesses legítimos ao invés de consentimento. Pode ler mais informação sobre este assunto na nossa Política de Privacidade e Cookies.